Location: Laas
(43.4693°N, 0.3073°E)
Time: 15:49:53
(UTC+00:00)

Cosmos 1825 Rocket - Pass Details

Date: 25 October 2020
Orbit: 603 x 631 km, 82.5° (Epoch: 24 November)

Event Time Altitude Azimuth Distance (km) Brightness Sun altitude
Rises 17:39:02 0° 353° (N) 2,928 7.0 -7.8°
Reaches altitude 10° 17:41:18 10° 356° (N) 2,013 6.1 -8.3°
Maximum altitude 17:45:46 71° 81° (E) 665 3.5 -9.1°
Drops below altitude 10° 17:50:09 10° 165° (SSE) 1,982 6.1 -9.8°
Sets 17:52:21 0° 168° (SSE) 2,878 6.9 -10.2°
